Regional Weather Roundup
Issued by NWS

Home | Current Version | Previous Version | Text Only | Print | Product List | Glossary On
Versions: 1 2 3 4 5 6 7 8 9 10 11 12 13 14 15 16 17 18 19 20 21 22 23 24 25 26 27 28 29 30 31 32 33 34 35 36 37 38 39 40 41 42 43 44 45 46 47 48 49 50
000
ASUS43 KDTX 291101
RWRMI
MICHIGAN HOURLY REGIONAL WEATHER ROUNDUP
NATIONAL WEATHER SERVICE DETROIT/PONTIAC MI
700 AM EDT WED MAR 29 2017

NOTE: "FAIR" INDICATES FEW OR NO CLOUDS BELOW 12,000 FEET WITH NO
SIGNIFICANT WEATHER AND/OR OBSTRUCTION TO VISIBILITY.

MIZ047>049-052>055-059>063-066>070-074>076-081>083-291200-
SOUTHEAST LOWER MICHIGAN

CITY           SKY/WX    TMP DP  RH WIND       PRES   REMARKS
ADRIAN         CLEAR     32  29  88 NE7       30.25R WCI  26
ALMA             N/A     26  26 100 CALM      30.28R FOG
ANN ARBOR      CLEAR     29  29 100 CALM      30.24R
BAD AXE        CLEAR     26  25  96 CALM      30.27R
CARO           FOG       26  26 100 CALM      30.27R VSB 1
DETROIT CITY   CLEAR     34  30  85 N5        30.26R WCI  30
DETROIT        CLEAR     34  30  85 N5        30.26R WCI  30
FLINT          CLEAR     27  25  92 CALM      30.26R
GROSSE ILE     CLEAR     31  29  93 N5        30.24R WCI  26
HILLSDALE      CLEAR     30  30 100 NE3       30.23R
HOWELL         CLEAR     28  27  94 CALM      30.25R

CITY           SKY/WX    TMP DP  RH WIND       PRES   REMARKS
JACKSON        CLEAR     31  28  89 CALM      30.25S
LAMBERTVILLE   CLEAR     33  31  92 NE3       30.24R
LANSING        PTCLDY    30  28  92 CALM      30.26S FOG
LAPEER         FAIR      27  27  99 CALM      30.26R
MASON          CLEAR     31  31 100 CALM      30.26R
MONROE         CLEAR     32  32  98 N5        30.24R WCI  28
MT. CLEMENS    CLEAR     33  32  96 NW3       30.24R
PONTIAC        CLEAR     31  26  82 CALM      30.24R
PORT HOPE        N/A     30  28  92 W6        30.25R WCI  24
PORT HURON     CLEAR     27  27 100 CALM      30.26R
TRI CITIES     CLEAR     32  29  88 N5        30.28R WCI  27
MIDLAND        FAIR      27  26  95 CALM      30.27R
TROY           CLEAR     36  29  78 CALM      30.27R
SAGINAW HB     CLEAR     30  28  93 CALM      30.28R
$$
MIZ043>046-050>051-056>058-064>065-071>073-077>080-291200-
SOUTHWEST LOWER MICHIGAN

CITY           SKY/WX    TMP DP  RH WIND       PRES   REMARKS
BATTLE CREEK   CLEAR     30  29  96 CALM      30.26R
BENTON HARBOR  CLEAR     28  26  92 CALM      30.24S
BIG RAPIDS     CLEAR     29  28  94 CALM      30.28R
COLDWATER      CLEAR     31  31 100 NE3       30.24R
FREMONT        FAIR      31  31 100 CALM      30.27R FOG
HOLLAND        CLEAR     30  28  92 E3        30.26R
GRAND RAPIDS   PTCLDY    32  32 100 CALM      30.26R
IONIA          FAIR      32  32  99 CALM      30.26R FOG
KALAMAZOO      CLEAR     31  28  89 N3        30.25R
LUDINGTON      CLEAR     29  29 100 CALM      30.29R FOG
MARSHALL       CLEAR     28  27  98 CALM      30.26R
MOUNT PLEASANT CLEAR     29  29  98 CALM      30.27R
MUSKEGON       CLEAR     31  28  89 CALM      30.27R FOG
SOUTH HAVEN    CLEAR     31  30  98 E3        30.24S
$$
MIZ016>042-291200-
NORTHERN LOWER MICHIGAN

CITY           SKY/WX    TMP DP  RH WIND       PRES   REMARKS
ALPENA         CLEAR     31  29  92 NW7       30.29R WCI  24
BEAVER ISLAND  CLOUDY    30  30 100 NE6       30.33R FOG     WCI  24
BELLAIRE       CLEAR     25  24  94 CALM      30.32R
CADILLAC       CLEAR     26  26  96 CALM      30.26R FOG
CHARLEVOIX     FOG       30  30 100 N6        30.35R VSB 1/4 WCI  24
FRANKFORT      CLEAR     29  26  92 CALM      30.29S
GAYLORD        CLEAR     32  26  78 CALM      30.27R
HARBOR SPRINGS CLEAR     27  27  99 CALM      30.32R
HOUGHTON LAKE  CLEAR     27  24  89 CALM      30.28R
MANISTEE       CLEAR     27  25  92 SE3       30.29R
OSCODA         CLEAR     27  23  83 NW3       30.26R
PELLSTON       CLOUDY    30  28  92 N6        30.33R FOG     WCI  24
ROGERS CITY    CLEAR     33  31  92 N5        30.32R WCI  29
TRAVERSE CITY  CLEAR     28  26  92 CALM      30.30R
$$
MIZ007>008-015-291200-
EASTERN UPPER MICHIGAN

CITY           SKY/WX    TMP DP  RH WIND       PRES   REMARKS
KINROSS        CLEAR     26  25  96 NW5       30.32R WCI  20
MACKINAC ISLAN CLEAR     27  27 100 N5        30.32R WCI  22
NEWBERRY       CLEAR     27  26  97 N3        30.33R
S. S. MARIE    CLEAR     31  24  75 CALM      30.32R
MUNISING         N/A     28  26  92 CALM      30.35S
$$
MIZ004>006-011>014-085-291200-
CENTRAL UPPER MICHIGAN

CITY           SKY/WX    TMP DP  RH WIND       PRES   REMARKS
MANISTIQUE     CLEAR     26  26  98 N5        30.33R WCI  20
ESCANABA       CLEAR     30  28  92 N5        30.33S WCI  25
MENOMINEE        N/A    N/A N/A N/A MISG        N/A
SAWYER-GWINN   CLEAR     28  27  93 NE8       30.32S WCI  20
$$
MIZ001>003-009>011-084-291200-
WESTERN UPPER MICHIGAN

CITY           SKY/WX    TMP DP  RH WIND       PRES   REMARKS
IRON MOUNTAIN  CLEAR     27  22  81 CALM      30.30R
HOUGHTON       MOCLDY    31  27  85 E8        30.34R WCI  23
COPPER HARBOR    N/A     28  23  81 S3        30.37S
IRONWOOD       CLEAR     31  27  85 E6        30.29R WCI  25
$$

ABBREVIATIONS USED IN REMARKS
   TC - TEMPERATURE IN CELSIUS
  WCI - WIND CHILL INDEX
   HX - HEAT INDEX
  VSB - VISIBILITY





USA.gov is the U.S. government's official web portal to all federal, state and local government web resources and services.